EW7225 Cave IT current weather conditions

sailwx.info

Wind from 045

Air temperature 27.2° C
Dewpoint 15.6° C

Last reported at 2020-Aug-07 17:00 UTC.
Time now 2020-Aug-07 18:07 UTC

Location: N 41°48' E 012°56'.
View on Google Maps.

See reports from other nearby stations

  
Tides and Currents Weather Stations Pressure Air Temp Water Temp Dewpoint Dewpoint Depression Visibility Wind Speed Wind Dir Waves Ship Positions
date/time (UTC)wind fromknots sea level pressurealtimeterstation pressurevisibilityair tempwater tempwave heightnotes
2020-Aug-07 17:00 045 27.2
2020-Aug-07 16:50 302 0 gusting 5 27.8
2020-Aug-07 16:40 291 0 gusting 5 27.8
2020-Aug-07 16:30 320 1 gusting 7 28.3
2020-Aug-07 16:20 347 1 gusting 7 28.9
2020-Aug-07 16:10 308 1 gusting 7 29.4
2020-Aug-07 16:00 304 2 gusting 10 30.0
2020-Aug-07 15:50 312 2 gusting 7 30.0
2020-Aug-07 15:40 268 1 gusting 5 30.0
2020-Aug-07 15:30 314 0 gusting 7 30.0
2020-Aug-07 15:20 261 1 gusting 7 29.4
2020-Aug-07 15:10 309 3 gusting 10 29.4
2020-Aug-07 15:00 277 1 gusting 10 29.4
2020-Aug-07 14:50 268 3 gusting 7 28.9
2020-Aug-07 14:40 243 1 gusting 7 27.8
2020-Aug-07 14:30 242 2 gusting 7 27.2
2020-Aug-07 14:20 266 2 gusting 7 27.2
2020-Aug-07 14:10 286 2 gusting 7 27.2
2020-Aug-07 14:00 281 1 gusting 7 27.8
2020-Aug-07 13:50 286 1 gusting 7 28.3
2020-Aug-07 13:40 277 2 gusting 7 28.9
2020-Aug-07 13:30 274 3 gusting 7 29.4
2020-Aug-07 13:20 259 2 gusting 7 30.0
2020-Aug-07 13:10 283 3 gusting 10 30.0
2020-Aug-07 13:00 244 1 gusting 7 29.4
2020-Aug-07 12:50 292 1 gusting 7 28.9
2020-Aug-07 12:40 264 1 gusting 7 28.3
2020-Aug-07 12:30 232 0 gusting 5 28.3
2020-Aug-07 12:20 280 28.3
2020-Aug-07 12:10 209 0 gusting 5 28.9
2020-Aug-07 12:00 230 0 gusting 5 29.4
2020-Aug-07 11:50 329 0 gusting 5 29.4
2020-Aug-07 11:40 275 0 gusting 7 29.4
2020-Aug-07 11:30 272 2 gusting 7 28.9
2020-Aug-07 11:20 342 1 gusting 7 28.9
2020-Aug-07 11:10 288 1 gusting 7 28.9
2020-Aug-07 11:00 216 2 gusting 7 28.9
2020-Aug-07 10:50 308 2 gusting 7 28.9
2020-Aug-07 10:40 276 3 gusting 7 28.9
2020-Aug-07 10:30 243 2 gusting 7 28.9
2020-Aug-07 10:20 255 1 gusting 5 28.3
2020-Aug-07 10:10 290 2 gusting 7 28.3
2020-Aug-07 10:00 228 1 gusting 10 27.8
2020-Aug-07 09:50 176 3 gusting 7 27.8
2020-Aug-07 09:40 250 2 gusting 7 27.8
2020-Aug-07 09:30 252 2 gusting 7 27.2
2020-Aug-07 09:20 179 1 gusting 7 27.2
2020-Aug-07 09:10 221 1 gusting 7 27.2
2020-Aug-07 09:00 307 0 gusting 5 27.2
2020-Aug-07 08:50 205 1 gusting 7 26.7
2020-Aug-07 08:40 272 1 gusting 5 26.7
2020-Aug-07 08:30 256 1 gusting 7 26.7
2020-Aug-07 08:20 269 1 gusting 5 26.1
2020-Aug-07 08:10 335 25.6
2020-Aug-07 08:00 294 0 gusting 5 25.6
2020-Aug-07 07:50 286 1 gusting 7 25.6
2020-Aug-07 07:40 267 2 gusting 13 26.1
2020-Aug-07 07:30 252 2 gusting 7 26.7
2020-Aug-07 07:20 188 1 gusting 5 26.1
2020-Aug-07 07:10 095 0 gusting 5 25.0
2020-Aug-07 07:00 096 0 gusting 7 23.9
2020-Aug-07 06:50 199 23.3
2020-Aug-07 06:40 179 1 gusting 5 23.3
2020-Aug-07 06:30 210 1 gusting 7 22.8
2020-Aug-07 06:20 242 0 gusting 5 22.2
2020-Aug-07 06:12 191 21.7
2020-Aug-07 06:00 272 0 gusting 5 21.7
2020-Aug-07 05:50 125 20.6
2020-Aug-07 05:40 272 20.0
2020-Aug-07 05:30 321 19.4
2020-Aug-07 05:20 295 1 gusting 5 19.4
2020-Aug-07 05:10 108 18.9
2020-Aug-07 05:00 18.3
2020-Aug-07 04:50 17.8
2020-Aug-07 04:40 17.8
2020-Aug-07 04:30 059 17.8
2020-Aug-07 04:20 17.8
2020-Aug-07 04:10 17.2
2020-Aug-07 04:00 17.2
2020-Aug-07 03:50 293 17.2
2020-Aug-07 03:40 286 1 gusting 5 17.8
2020-Aug-07 03:30 296 17.8
2020-Aug-07 03:20 17.8
2020-Aug-07 03:10 17.8
2020-Aug-07 03:00 18.3
2020-Aug-07 02:50 18.3
2020-Aug-07 02:40 295 0 gusting 2 18.3
2020-Aug-07 02:30 18.3
2020-Aug-07 02:20 18.3
2020-Aug-07 02:10 17.8
2020-Aug-07 02:00 17.8
2020-Aug-07 01:50 17.8
2020-Aug-07 01:40 001 17.8
2020-Aug-07 01:30 345 17.8
2020-Aug-07 01:20 17.8
2020-Aug-07 01:10 295 0 gusting 5 18.3
2020-Aug-07 01:00 18.3
2020-Aug-07 00:50 18.3
2020-Aug-07 00:40 281 18.9
2020-Aug-07 00:30 18.9
2020-Aug-07 00:20 19.4
2020-Aug-07 00:10 20.0
2020-Aug-07 00:00 20.0
2020-Aug-06 23:50 20.0
2020-Aug-06 23:40 133 20.0
2020-Aug-06 23:30 20.6
2020-Aug-06 23:20 20.6
2020-Aug-06 23:10 20.6
2020-Aug-06 23:00 084 20.6
2020-Aug-06 22:50 20.6
2020-Aug-06 22:40 142 20.6
2020-Aug-06 22:30 113 20.6
2020-Aug-06 22:20 118 20.6
2020-Aug-06 22:10 20.6
2020-Aug-06 22:00 278 1 gusting 2 21.1
2020-Aug-06 21:50 093 21.7
2020-Aug-06 21:40 112 0 gusting 2 22.2
2020-Aug-06 21:30 22.2
2020-Aug-06 21:20 113 0 gusting 5 22.8
2020-Aug-06 21:10 099 0 gusting 5 22.8
2020-Aug-06 21:00 108 0 gusting 5 22.8
2020-Aug-06 20:50 046 22.8
2020-Aug-06 20:40 072 22.2
2020-Aug-06 20:30 091 22.8
2020-Aug-06 20:20 22.8
2020-Aug-06 20:10 076 23.3
2020-Aug-06 20:00 23.3
2020-Aug-06 19:50 047 23.3
2020-Aug-06 19:40 029 0 gusting 2 23.9
2020-Aug-06 19:30 23.9
2020-Aug-06 19:20 23.9
2020-Aug-06 19:10 013 0 gusting 2 24.4
2020-Aug-06 19:00 24.4
2020-Aug-06 18:50 24.4
2020-Aug-06 18:40 24.4
2020-Aug-06 18:30 25.0
2020-Aug-06 18:20 25.0
2020-Aug-06 18:10 285 25.0
2020-Aug-06 18:00 291 0 gusting 5 25.0
2020-Aug-06 17:50 275 1 gusting 7 25.0
2020-Aug-06 17:40 274 0 gusting 5 25.0
2020-Aug-06 17:30 241 2 gusting 7 25.6
2020-Aug-06 17:20 249 2 gusting 10 26.1
2020-Aug-06 17:10 239 3 gusting 10 26.7
2020-Aug-06 17:00 232 2 gusting 7 26.7
2020-Aug-06 16:50 265 3 gusting 10 27.2
2020-Aug-06 16:40 274 3 gusting 13 27.2
2020-Aug-06 16:30 268 2 gusting 7 27.2
2020-Aug-06 16:20 203 3 gusting 13 27.2
2020-Aug-06 16:10 247 4 gusting 10 27.8
2020-Aug-06 16:00 233 5 gusting 13 27.8
2020-Aug-06 15:50 265 4 gusting 10 27.8
2020-Aug-06 15:40 273 4 gusting 13 27.2
2020-Aug-06 15:30 224 5 gusting 13 26.7
2020-Aug-06 15:20 246 4 gusting 15 26.7
2020-Aug-06 15:10 229 6 gusting 15 26.7
2020-Aug-06 15:00 252 4 gusting 10 26.7
2020-Aug-06 14:50 271 2 gusting 10 27.2
2020-Aug-06 14:40 266 3 gusting 10 27.2
2020-Aug-06 14:30 230 5 gusting 13 27.8
2020-Aug-06 14:20 224 5 gusting 13 27.8
2020-Aug-06 14:10 231 3 gusting 7 27.2
2020-Aug-06 14:00 226 6 gusting 15 27.2
2020-Aug-06 13:50 254 6 gusting 13 27.2
2020-Aug-06 13:40 260 1 gusting 7 27.2
2020-Aug-06 13:30 256 0 gusting 5 27.8
2020-Aug-06 13:20 231 5 gusting 13 27.8
2020-Aug-06 13:10 250 6 gusting 15 27.8
2020-Aug-06 13:00 257 6 gusting 13 27.8
2020-Aug-06 12:50 246 1 gusting 7 27.2
2020-Aug-06 12:40 276 3 gusting 7 27.8
2020-Aug-06 12:30 279 2 gusting 10 28.3
2020-Aug-06 12:20 278 2 gusting 13 28.3
2020-Aug-06 12:10 238 5 gusting 13 28.3
2020-Aug-06 12:00 244 3 gusting 10 28.3
2020-Aug-06 11:50 317 2 gusting 10 28.3
2020-Aug-06 11:40 232 3 gusting 7 28.3
2020-Aug-06 11:30 209 3 gusting 10 27.8
2020-Aug-06 11:20 200 5 gusting 13 27.8
2020-Aug-06 11:10 211 5 gusting 13 27.8
2020-Aug-06 11:00 228 1 gusting 7 27.2
2020-Aug-06 10:50 233 4 gusting 10 27.2
2020-Aug-06 10:40 218 4 gusting 10 26.7
2020-Aug-06 10:30 248 1 gusting 7 26.7
2020-Aug-06 10:20 256 2 gusting 5 26.7
2020-Aug-06 10:10 272 2 gusting 7 26.1
2020-Aug-06 10:00 193 3 gusting 10 26.1
2020-Aug-06 09:50 110 1 gusting 7 26.1
2020-Aug-06 09:40 251 1 gusting 5 25.6
2020-Aug-06 09:30 237 2 gusting 10 25.6
2020-Aug-06 09:20 299 3 gusting 7 25.0
2020-Aug-06 09:10 327 1 gusting 7 25.0
2020-Aug-06 09:00 274 1 gusting 7 25.0
2020-Aug-06 08:50 266 3 gusting 7 24.4
2020-Aug-06 08:40 284 2 gusting 7 23.9
2020-Aug-06 08:30 275 1 gusting 5 23.9
2020-Aug-06 08:20 274 3 gusting 7 23.9
2020-Aug-06 08:10 281 2 gusting 7 23.9
2020-Aug-06 08:00 119 1 gusting 5 23.9
2020-Aug-06 07:50 161 3 gusting 7 23.9
2020-Aug-06 07:40 184 2 gusting 7 23.9
2020-Aug-06 07:30 161 1 gusting 5 24.4
2020-Aug-06 07:20 160 0 gusting 5 23.9
2020-Aug-06 07:10 128 23.3
2020-Aug-06 07:00 164 0 gusting 2 23.3
2020-Aug-06 06:50 194 20.6
2020-Aug-06 06:40 173 19.4
2020-Aug-06 06:30 266 18.9
2020-Aug-06 06:20 285 0 gusting 5 19.4
2020-Aug-06 06:10 260 0 gusting 5 20.0
2020-Aug-06 06:00 219 1 gusting 5 20.0
2020-Aug-06 05:50 162 19.4
2020-Aug-06 05:40 18.3
2020-Aug-06 05:30 078 17.2
2020-Aug-06 05:20 020 16.7
2020-Aug-06 05:10 319 0 gusting 2 16.1
2020-Aug-06 05:00 15.6
2020-Aug-06 04:50 15.6
2020-Aug-06 04:40 15.6
2020-Aug-06 04:30 288 0 gusting 5 15.6
2020-Aug-06 04:20 076 1 gusting 7 15.6
2020-Aug-06 04:10 326 0 gusting 5 15.6
2020-Aug-06 04:00 321 0 gusting 5 15.0
2020-Aug-06 03:50 316 15.0
2020-Aug-06 03:40 342 0 gusting 5 15.6
2020-Aug-06 03:30 302 0 gusting 2 15.6
2020-Aug-06 03:20 353 0 gusting 5 15.6
2020-Aug-06 03:10 15.6
2020-Aug-06 03:00 15.6
2020-Aug-06 02:50 045 15.6
2020-Aug-06 02:40 15.6
2020-Aug-06 02:30 15.6
2020-Aug-06 02:20 15.6
2020-Aug-06 02:10 351 1 gusting 5 15.6
2020-Aug-06 02:00 016 0 gusting 5 15.6
2020-Aug-06 01:50 15.6
2020-Aug-06 01:40 030 15.6
2020-Aug-06 01:30 044 15.6
2020-Aug-06 01:20 15.6
2020-Aug-06 01:10 15.6
2020-Aug-06 01:00 16.1
2020-Aug-06 00:50 16.1
2020-Aug-06 00:40 16.1
2020-Aug-06 00:30 350 16.1
2020-Aug-06 00:20 343 15.6
2020-Aug-06 00:10 15.6
2020-Aug-06 00:00 023 16.1
2020-Aug-05 23:50 16.1
2020-Aug-05 23:40 16.7
2020-Aug-05 23:30 16.7
2020-Aug-05 23:20 035 0 gusting 5 16.1
2020-Aug-05 23:10 045 0 gusting 5 16.1
2020-Aug-05 23:00 344 16.1
2020-Aug-05 22:50 16.1
2020-Aug-05 22:40 316 16.1
2020-Aug-05 22:30 16.7
2020-Aug-05 22:20 334 16.7
2020-Aug-05 22:10 025 0 gusting 5 16.7
2020-Aug-05 22:00 298 0 gusting 5 17.2
2020-Aug-05 21:50 287 17.2
2020-Aug-05 21:40 010 17.2
2020-Aug-05 21:30 033 17.2
2020-Aug-05 21:20 260 17.2
2020-Aug-05 21:10 315 17.2
2020-Aug-05 21:00 17.8
2020-Aug-05 20:50 17.8
2020-Aug-05 20:40 18.3
2020-Aug-05 20:30 017 18.3
2020-Aug-05 20:20 031 18.3
2020-Aug-05 20:10 335 18.3
2020-Aug-05 20:00 003 0 gusting 2 18.3
2020-Aug-05 19:50 343 18.3
2020-Aug-05 19:40 004 18.3
2020-Aug-05 19:30 18.3
2020-Aug-05 19:20 18.3
2020-Aug-05 19:10 18.3
2020-Aug-05 19:00 021 18.3
2020-Aug-05 18:50 18.3
2020-Aug-05 18:40 18.9
2020-Aug-05 18:30 038 19.4
2020-Aug-05 18:20 337 19.4
2020-Aug-05 18:10 20.0
2020-Aug-05 18:00 20.0